"Time","Temp","Dewpoint","Humidity","Pressure","Direction","Speed","Gust","Precip","PrecipRate"
"00:04:58","41.8","29.4","61.2","30.25","338","0.2","1.2","0.00","0.00"
"00:09:59","41.4","29.6","62.7","30.25","338","0","0","0.00","0.00"
"00:14:57","40.9","29.6","63.9","30.25","338","0.3","2.4","0.00","0.00"
"00:19:58","40.4","29.4","64.5","30.25","338","0","1.2","0.00","0.00"
"00:24:59","39.9","29.4","65.7","30.25","338","0","0","0.00","0.00"
"00:29:56","39.5","29.1","66.2","30.25","338","0.6","2.4","0.00","0.00"
"00:34:57","39.3","28.8","65.8","30.25","338","0.7","2.4","0.00","0.00"
"00:39:58","39.2","29","66.4","30.25","338","0.1","1.2","0.00","0.00"
"00:44:59","38.8","29","67.7","30.26","338","0.2","2.4","0.00","0.00"
"00:49:56","38.4","28.8","68","30.26","338","0","0","0.00","0.00"
"00:54:57","38.1","28.8","69.1","30.26","338","0","0","0.00","0.00"
"00:59:59","37.7","29","70.7","30.26","338","0","0","0.00","0.00"
"01:04:56","37.3","28.4","70","30.26","338","0","0","0.00","0.00"
"01:09:59","37","28.4","70.6","30.26","338","0.1","1.2","0.00","0.00"
"01:14:57","36.7","28.7","72.6","30.27","338","0.2","1.2","0.00","0.00"
"01:19:58","36.2","28.7","73.9","30.27","338","0.2","1.2","0.00","0.00"
"01:24:59","35.7","28.3","74.3","30.27","338","0","0","0.00","0.00"
"01:29:56","35.3","28.2","75","30.28","338","0","0","0.00","0.00"
"01:34:57","35.1","28","75","30.28","338","0","0","0.00","0.00"
"01:39:59","35.1","28","75","30.28","338","0","0","0.00","0.00"
"01:44:57","35.1","28.1","75.2","30.28","338","0","0","0.00","0.00"
"01:49:58","35.2","28.2","75.4","30.28","338","0","0","0.00","0.00"
"01:54:56","35.2","28.1","75","30.28","338","0","0","0.00","0.00"
"01:59:57","35","28","75.5","30.28","338","0","0","0.00","0.00"
"02:04:58","34.5","28","76.8","30.28","338","0","0","0.00","0.00"
"02:09:58","34.1","27.6","77","30.28","338","0","0","0.00","0.00"
"02:14:59","33.8","27.7","78","30.28","338","0","0","0.00","0.00"
"02:19:59","33.4","27.6","79","30.28","338","0","0","0.00","0.00"
"02:24:58","33.2","27.4","79","30.28","338","0","0","0.00","0.00"
"02:29:56","33.1","27.5","79.7","30.28","338","0","0","0.00","0.00"
"02:34:57","32.8","27.5","80.7","30.27","338","0","0","0.00","0.00"
"02:39:59","32.6","27.4","81","30.27","338","0","0","0.00","0.00"
"02:44:56","32.6","27.4","81","30.27","338","0","0","0.00","0.00"
"02:49:58","32.5","27.5","81.8","30.27","338","0","0","0.00","0.00"
"02:54:58","32.3","27.5","82.4","30.27","338","0","0","0.00","0.00"
"02:59:56","32.1","27.5","83","30.27","338","0","0","0.00","0.00"
"03:04:59","32.1","27.5","83","30.27","338","0","0","0.00","0.00"
"03:09:58","32","27.5","83.2","30.27","338","0","0","0.00","0.00"
"03:14:56","31.9","27.6","84","30.27","338","0","0","0.00","0.00"
"03:19:57","31.9","27.6","84","30.27","338","0","0","0.00","0.00"
"03:24:58","32","27.5","83.6","30.27","338","0","0","0.00","0.00"
"03:29:58","31.8","27.3","83.4","30.27","338","0","0","0.00","0.00"
"03:34:59","31.7","27.5","84.3","30.27","338","0","0","0.00","0.00"
"03:39:57","31.8","27.5","84","30.27","338","0","0","0.00","0.00"
"03:44:58","32","27.6","83.9","30.27","338","0","0","0.00","0.00"
"03:49:56","32","27.4","83","30.27","338","0","0","0.00","0.00"
"03:54:57","31.7","27.4","83.8","30.27","338","0","0","0.00","0.00"
"03:59:59","31.6","27.3","84","30.27","338","0","0","0.00","0.00"
"04:04:56","31.4","27.1","84","30.27","338","0","0","0.00","0.00"
"04:09:56","31.1","26.9","84.3","30.27","338","0","0","0.00","0.00"
"04:14:56","31.1","27.1","85","30.27","338","0","0","0.00","0.00"
"04:19:57","31.2","27.1","84.5","30.27","338","0","0","0.00","0.00"
"04:24:58","31.1","26.8","84","30.27","338","0","0","0.00","0.00"
"04:29:58","30.8","26.8","84.8","30.27","338","0","0","0.00","0.00"
"04:34:58","30.7","26.7","85","30.27","338","0","0","0.00","0.00"
"04:39:59","30.6","26.6","85","30.27","338","0","0","0.00","0.00"
"04:44:59","30.5","26.5","85","30.27","338","0","0","0.00","0.00"
"04:49:59","30.5","26.8","86","30.27","338","0","0","0.00","0.00"
"04:54:56","30.6","26.6","85.2","30.27","338","0","0","0.00","0.00"
"04:59:56","30.5","26.5","85","30.27","338","0","0","0.00","0.00"
"05:04:57","30.4","26.4","85","30.27","338","0","0","0.00","0.00"
"05:09:56","30.3","26.3","85","30.27","338","0","0","0.00","0.00"
"05:14:57","30.1","26.2","85.2","30.27","338","0","0","0.00","0.00"
"05:19:58","29.9","26.2","86","30.27","338","0","0","0.00","0.00"
"05:24:59","29.8","26.3","86.8","30.27","338","0","0","0.00","0.00"
"05:29:56","29.6","26.2","87","30.27","338","0","0","0.00","0.00"
"05:34:56","29.4","26.2","87.4","30.27","338","0","0","0.00","0.00"
"05:39:57","29.4","26.2","87.6","30.27","338","0","0","0.00","0.00"
"05:44:58","29.4","26.1","87.5","30.28","338","0","0","0.00","0.00"
"05:49:58","29.3","26.2","87.8","30.28","338","0","0","0.00","0.00"
"05:54:58","29.5","26.4","88","30.28","338","0","0","0.00","0.00"
"05:59:58","29.6","26.3","87.5","30.28","338","0","0","0.00","0.00"
"06:04:56","29.6","26.2","87","30.28","338","0","0","0.00","0.00"
"06:09:56","29.4","26.1","87.3","30.28","338","0","0","0.00","0.00"
"06:14:58","29.3","26.1","87.8","30.28","338","0","0","0.00","0.00"
"06:19:58","29.2","26.1","88","30.28","338","0","0","0.00","0.00"
"06:24:59","29.2","26.1","88","30.28","338","0","0","0.00","0.00"
"06:29:56","29.2","26.1","88","30.28","338","0","0","0.00","0.00"
"06:34:57","29.2","26.1","88.2","30.28","338","0","0","0.00","0.00"
"06:39:58","29.4","26.4","88.2","30.28","338","0","0","0.00","0.00"
"06:44:59","29.5","26.3","87.6","30.29","338","0","0","0.00","0.00"
"06:49:56","29.4","26","87.1","30.29","338","0","0","0.00","0.00"
"06:54:57","29.4","26.3","88","30.29","338","0","0","0.00","0.00"
"06:59:57","29.5","26.4","88","30.29","338","0","0","0.00","0.00"
"07:04:58","29.6","26.5","88","30.28","338","0","0","0.00","0.00"
"07:09:58","29.8","26.7","88","30.28","338","0","0","0.00","0.00"
"07:14:58","30.1","27","88","30.30","338","0","0","0.00","0.00"
"07:19:59","30.6","27.5","88","30.30","338","0","0","0.00","0.00"
"07:24:59","30.9","27.7","87.7","30.30","338","0","0","0.00","0.00"
"07:29:56","31.2","27.8","87","30.30","338","0","0","0.00","0.00"
"07:34:56","31.7","28.3","87","30.30","338","0","0","0.00","0.00"
"07:39:56","32.4","28.8","86.3","30.30","338","0","0","0.00","0.00"
"07:44:56","33","29.1","85.4","30.30","338","0","0","0.00","0.00"
"07:49:56","33.5","29.4","84.7","30.30","338","0","0","0.00","0.00"
"07:54:57","34.5","29.9","83.2","30.30","338","0","0","0.00","0.00"
"07:59:57","35.7","30.5","81.2","30.30","338","0","0","0.00","0.00"
"08:04:58","36.9","31.3","80.2","30.29","338","0","0","0.00","0.00"
"08:09:58","37.5","31.6","79","30.29","338","0","0","0.00","0.00"
"08:14:58","38.2","32","78.3","30.30","338","0","0","0.00","0.00"
"08:19:59","39.1","32.9","78.2","30.30","338","0","1.2","0.00","0.00"
"08:24:59","40.2","33.3","76.4","30.30","338","0","0","0.00","0.00"
"08:29:57","40.9","32.8","72.8","30.30","338","0","0","0.00","0.00"
"08:34:57","41.8","33.4","71.7","30.30","338","0","0","0.00","0.00"
"08:39:58","42.8","33.7","70","30.30","338","0","0","0.00","0.00"
"08:44:58","43.1","33.6","69.1","30.30","338","0","0","0.00","0.00"
"08:49:58","43.8","33.7","67.5","30.29","9","1.1","3.6","0.00","0.00"
"08:54:58","44.3","33","64.5","30.29","50","1.3","3.6","0.00","0.00"
"08:59:58","44.3","32.6","63.3","30.29","67","1.4","4.8","0.00","0.00"
"09:04:58","44.4","32","61.6","30.29","42","2.1","4.8","0.00","0.00"
"09:09:57","44.6","32.5","62.5","30.29","23","1.5","4.8","0.00","0.00"
"09:14:58","45.1","32.8","61.9","30.29","11","0.6","2.4","0.00","0.00"
"09:19:58","45.5","32.5","60.3","30.28","11","2.1","7.2","0.00","0.00"
"09:24:58","45.6","33.2","61.8","30.28","13","1.5","5.8","0.00","0.00"
"09:29:58","46","33.2","60.6","30.28","44","1.2","3.6","0.00","0.00"
"09:34:58","46.3","33.2","60.1","30.27","51","0.6","4.8","0.00","0.00"
"09:39:58","46.4","33","59.3","30.27","58","1.1","4.6","0.00","0.00"
"09:44:58","46.7","32.3","57.3","30.27","92","2.5","6","0.00","0.00"
"09:49:55","46.8","33","58.6","30.27","102","2.1","4.6","0.00","0.00"
"09:54:59","46.9","33.1","58.4","30.27","96","1.4","3.6","0.00","0.00"
"09:59:59","47.3","33.2","57.8","30.27","90","2.9","6","0.00","0.00"
"10:04:59","46.8","33","58.5","30.26","117","2.6","5.8","0.00","0.00"
"10:09:59","47.8","34.1","58.9","30.26","94","1.8","4.8","0.00","0.00"
"10:14:59","47.8","33.2","56.7","30.26","103","2.1","4.8","0.00","0.00"
"10:19:59","48.2","33.1","55.6","30.25","115","1.3","4.8","0.00","0.00"
"10:24:59","48","32.3","54.5","30.25","18","1.4","3.6","0.00","0.00"
"10:29:59","47.5","32.4","55.7","30.25","283","0.1","3.6","0.00","0.00"
"10:34:58","47.1","32.2","56.1","30.25","209","1.8","6","0.00","0.00"
"10:39:58","48.5","34","57.2","30.25","206","2.7","4.8","0.00","0.00"
"10:44:59","48.4","32.7","54.5","30.25","191","0.5","2.4","0.00","0.00"
"10:49:59","49","34.1","56.1","30.25","202","2.3","4.8","0.00","0.00"
"10:54:59","49.5","34","55.1","30.25","209","2.1","4.8","0.00","0.00"
"10:59:56","49.3","33.4","54.2","30.25","204","2.1","4.8","0.00","0.00"
"11:04:56","49.9","33.9","54","30.24","136","1.6","6","0.00","0.00"
"11:09:59","49.7","33.3","53.2","30.24","118","1.4","5.8","0.00","0.00"
"11:14:56","50.3","34","53.5","30.24","194","2.3","8.4","0.00","0.00"
"11:19:56","50.1","33.4","52.5","30.24","219","3.1","8.1","0.00","0.00"
"11:24:56","50.7","34.8","54.3","30.24","209","1.5","4.6","0.00","0.00"
"11:29:56","51.9","35.7","53.9","30.24","89","2.7","6","0.00","0.00"
"11:34:57","52.5","36.5","54.3","30.22","80","1.4","4.8","0.00","0.00"
"11:39:57","52.6","36","53.2","30.22","107","2.8","4.8","0.00","0.00"
"11:44:57","52.6","35.2","51.6","30.22","113","2.8","6","0.00","0.00"
"11:49:57","52.2","34.8","51.4","30.20","113","3.2","6","0.00","0.00"
"11:54:57","52.3","36","53.8","30.20","107","2.6","6","0.00","0.00"
"11:59:57","53.2","35.8","51.6","30.20","135","3.2","8.4","0.00","0.00"
"12:04:57","54.1","36.4","51.2","30.19","198","3.7","8.4","0.00","0.00"
"12:09:56","54.3","36.1","50.3","30.19","213","2.7","6","0.00","0.00"
"12:14:56","53.8","35.5","49.8","30.19","203","3.7","7.2","0.00","0.00"
"12:19:56","54","35.6","49.7","30.18","209","1.9","4.8","0.00","0.00"
"12:24:57","54.2","36.1","50.4","30.18","197","2.9","7.2","0.00","0.00"
"12:29:57","54.5","36","49.6","30.18","271","1.8","4.8","0.00","0.00"
"12:34:56","54.8","36.1","49.1","30.16","326","2.5","6","0.00","0.00"
"12:39:56","55","36","48.6","30.16","252","4.7","8.4","0.00","0.00"
"12:44:56","55.4","36.4","48.8","30.16","208","3.2","7.2","0.00","0.00"
"12:49:57","55.2","37.4","51","30.15","117","3.1","7.2","0.00","0.00"
"12:54:57","54.9","35.7","48.2","30.15","125","2.8","6.9","0.00","0.00"
"12:59:57","55.5","36.7","49.2","30.15","41","2.8","7.2","0.00","0.00"
"13:04:57","55.9","36.8","48.6","30.14","200","3.3","7.2","0.00","0.00"
"13:09:56","56.2","36.5","47.6","30.14","117","1.8","4.8","0.00","0.00"
"13:14:58","56.2","37.6","49.7","30.14","78","1.5","4.8","0.00","0.00"
"13:19:58","57","37.6","48.2","30.12","58","2.8","6","0.00","0.00"
"13:24:59","56.9","36.7","46.8","30.12","175","3","8.4","0.00","0.00"
"13:29:59","57","36.6","46.2","30.12","160","4.4","8.4","0.00","0.00"
"13:34:59","56.9","36.5","46.4","30.11","195","4.5","10.8","0.00","0.00"
"13:39:57","56.9","36.7","46.6","30.11","188","3.7","9.2","0.00","0.00"
"13:44:58","56.5","36.3","46.7","30.11","232","0.7","4.8","0.00","0.00"
"13:49:58","57.6","37.3","46.8","30.10","352","2.3","6","0.00","0.00"
"13:54:58","57.7","37.6","46.9","30.10","92","2.9","7.2","0.00","0.00"
"13:59:59","57.4","38","48.3","30.10","65","2.6","10.8","0.00","0.00"
"14:04:59","57.6","37.1","46.3","30.09","129","3.2","7.2","0.00","0.00"
"14:09:58","58.1","37","45.3","30.09","307","3.8","8.4","0.00","0.00"
"14:14:58","57.3","36.5","45.7","30.09","188","1.8","5.8","0.00","0.00"
"14:19:59","57.9","37.6","46.7","30.08","72","2.2","4.8","0.00","0.00"
"14:24:59","57.7","37.3","46.6","30.08","134","3.7","8.4","0.00","0.00"
"14:29:59","58.4","37.7","46","30.08","211","4.9","8.4","0.00","0.00"
"14:34:58","58.9","37.9","45.5","30.07","296","3.1","6","0.00","0.00"
"14:39:58","59.7","38.2","44.8","30.07","167","4.4","7.2","0.00","0.00"
"14:44:58","59.1","37.4","44.3","30.07","167","3.3","6.9","0.00","0.00"
"14:49:58","59.2","37.6","44.6","30.05","145","4.4","9.6","0.00","0.00"
"14:54:58","59.5","38.4","45.6","30.05","193","3.2","9.2","0.00","0.00"
"14:59:58","59.5","37.7","44.2","30.05","201","5.8","16.1","0.00","0.00"
"15:04:58","59.3","37.4","44","30.05","178","4.2","8.4","0.00","0.00"
"15:09:57","59.2","37.6","44.6","30.05","116","2.9","7.2","0.00","0.00"
"15:14:58","59.8","38.8","45.7","30.05","135","2.7","6","0.00","0.00"
"15:19:58","60.1","38.2","44.4","30.04","165","3.6","7.2","0.00","0.00"
"15:24:59","59.8","37.7","43.9","30.04","160","5","9.6","0.00","0.00"
"15:29:59","59.6","37.6","43.9","30.04","164","5.4","10.8","0.00","0.00"
"15:34:59","59.5","37.9","44.6","30.03","166","3.9","10.8","0.00","0.00"
"15:39:56","59.5","37.5","43.8","30.03","112","1.7","10.4","0.00","0.00"
"15:44:56","59.8","38","44.3","30.03","176","3.4","7.2","0.00","0.00"
"15:49:56","59.9","37.6","43.5","30.02","171","5","12","0.00","0.00"
"15:54:56","59.9","37.2","42.8","30.02","163","3","7.2","0.00","0.00"
"15:59:56","59.8","37.1","42.8","30.02","152","3.2","7.2","0.00","0.00"
"16:04:56","59.7","38","44.4","30.01","155","3.7","12","0.00","0.00"
"16:09:55","59.9","37.7","43.6","30.01","170","2.3","6","0.00","0.00"
"16:14:56","59.6","37.9","44.4","30.01","110","2.2","7.2","0.00","0.00"
"16:19:57","60.3","37.8","43.2","30.00","156","1.7","6","0.00","0.00"
"16:24:57","60.4","37.9","43.1","30.00","201","4.5","10.8","0.00","0.00"
"16:29:57","60","37.7","43.6","30.00","153","3","7.2","0.00","0.00"
"16:34:57","60.2","38","43.7","29.99","168","3.3","7.2","0.00","0.00"
"16:39:58","60.1","37.9","43.7","29.99","158","2.8","6","0.00","0.00"
"16:44:58","60.1","37.5","43","29.99","145","3","7.2","0.00","0.00"
"16:49:58","59.8","37.5","43.4","29.99","153","3.6","8.4","0.00","0.00"
"16:54:58","59.4","37","43.1","29.99","196","3.6","7.2","0.00","0.00"
"16:59:58","59.4","37.5","44.1","29.99","149","2.3","6","0.00","0.00"
"17:04:58","59.7","37.3","43.2","29.98","195","3.4","6","0.00","0.00"
"17:09:57","59.9","37.6","43.6","29.98","160","1.6","4.8","0.00","0.00"
"17:14:58","59.9","37.4","43.2","29.98","119","2.1","6","0.00","0.00"
"17:19:58","59.8","37.6","43.7","29.97","177","2.2","6","0.00","0.00"
"17:24:59","59.8","37.5","43.5","29.97","184","2.5","6","0.00","0.00"
"17:29:56","59.6","37.3","43.4","29.97","189","3.2","6","0.00","0.00"
"17:34:56","59.2","37.4","44.3","29.96","143","1.6","4.8","0.00","0.00"
"17:39:57","58.7","36.6","43.7","29.96","119","3.7","7.2","0.00","0.00"
"17:44:58","58.1","36.4","44.2","29.96","119","2.9","6","0.00","0.00"
"17:49:59","57.7","36.5","45","29.96","113","1.6","5.8","0.00","0.00"
"17:54:59","57.4","36.2","45","29.96","112","2.2","4.8","0.00","0.00"
"17:59:56","57","36","45.3","29.96","116","3.6","6","0.00","0.00"
"18:04:56","56.7","35.9","45.6","29.96","113","2.4","6","0.00","0.00"
"18:09:59","56.4","35.9","46","29.96","116","2.1","4.8","0.00","0.00"
"18:14:56","56","35.6","46.1","29.96","116","3.2","6","0.00","0.00"
"18:19:57","55.7","35.7","46.8","29.95","120","2.8","6","0.00","0.00"
"18:24:57","55.4","35.6","47.2","29.95","119","2.9","6","0.00","0.00"
"18:29:58","55","35.6","47.8","29.95","112","3.2","7.2","0.00","0.00"
"18:34:59","54.7","35.6","48.3","29.94","115","0.6","4.6","0.00","0.00"
"18:39:56","54.4","35.4","48.7","29.94","103","1.1","4.8","0.00","0.00"
"18:44:57","54.1","35.3","49","29.94","92","1.7","3.6","0.00","0.00"
"18:49:58","53.8","35.2","49.2","29.94","93","1.8","3.6","0.00","0.00"
"18:54:58","53.6","35.3","49.9","29.94","94","1.2","3.6","0.00","0.00"
"18:59:59","53.3","35.2","50.2","29.94","94","0.2","1.2","0.00","0.00"
"19:04:56","53.1","35.4","51","29.94","93","0.4","3.6","0.00","0.00"
"19:09:56","52.8","35.2","51","29.94","94","0.3","2.4","0.00","0.00"
"19:14:57","52.6","35.5","51.9","29.94","94","0.2","1.2","0.00","0.00"
"19:19:58","52.4","35.3","52","29.93","94","0.6","2.4","0.00","0.00"
"19:24:58","52.3","35.2","52","29.93","93","0.6","3.6","0.00","0.00"
"19:29:59","52.2","35.6","52.9","29.93","92","1.1","3.6","0.00","0.00"
"19:34:56","52.2","35.6","53","29.93","95","0.8","3.5","0.00","0.00"
"19:39:58","52.1","35.7","53.3","29.93","95","0.1","2.4","0.00","0.00"
"19:44:59","52","35.9","54","29.93","95","0","1.2","0.00","0.00"
"19:49:56","51.7","35.9","54.7","29.93","95","0","0","0.00","0.00"
"19:54:57","51","35.9","56.2","29.93","95","0","0","0.00","0.00"
"19:59:58","50.1","35.3","56.7","29.93","95","0","0","0.00","0.00"
"20:04:56","49.7","35.5","58","29.92","95","0","0","0.00","0.00"
"20:09:59","49.4","35.6","59","29.92","95","0","0","0.00","0.00"
"20:14:57","48.9","35.7","60.3","29.92","95","0","0","0.00","0.00"
"20:19:58","48.5","35.8","61.3","29.92","95","0","0","0.00","0.00"
"20:24:56","48.2","35.5","61.2","29.92","95","0","0","0.00","0.00"
"20:29:57","47.9","35.7","62.6","29.92","95","0","0","0.00","0.00"
"20:34:58","47.3","35.5","63.4","29.91","95","0","0","0.00","0.00"
"20:39:57","46.9","35.4","64","29.91","95","0","0","0.00","0.00"
"20:44:58","46.4","35.3","65","29.91","95","0","1.2","0.00","0.00"
"20:49:56","46.3","35.2","65","29.91","95","1.5","3.6","0.00","0.00"
"20:54:57","47","35.3","63.8","29.91","117","2.6","6","0.00","0.00"
"20:59:57","47.7","35.5","62.4","29.91","113","2.7","6","0.00","0.00"
"21:04:58","48.1","35.5","61.4","29.91","115","2.4","3.6","0.00","0.00"
"21:09:57","48.2","35.4","61","29.91","106","3","6","0.00","0.00"
"21:14:59","48.3","35.5","61","29.91","108","2.3","5.8","0.00","0.00"
"21:19:56","48.1","35.3","61","29.91","106","2.9","6","0.00","0.00"
"21:24:57","47.9","35.1","61","29.91","121","2.8","5.8","0.00","0.00"
"21:29:58","47.8","35","61","29.91","109","2.3","4.8","0.00","0.00"
"21:34:59","47.6","34.8","61","29.90","103","1.5","3.6","0.00","0.00"
"21:39:56","47.4","34.7","61.2","29.90","109","2.3","6","0.00","0.00"
"21:44:58","47.2","34.8","61.9","29.90","111","1.5","3.5","0.00","0.00"
"21:49:59","47","34.6","62","29.90","106","2.3","4.8","0.00","0.00"
"21:54:56","46.9","34.6","62","29.90","107","1.9","4.8","0.00","0.00"
"21:59:57","46.7","34.7","62.8","29.90","109","0.3","2.4","0.00","0.00"
"22:04:58","46.5","34.6","63","29.89","109","0.8","2.4","0.00","0.00"
"22:09:58","46.3","34.4","63","29.89","109","0.4","2.4","0.00","0.00"
"22:14:59","46.2","34.4","63.4","29.89","109","0.4","2.4","0.00","0.00"
"22:19:57","45.9","34.4","64","29.88","109","1.5","3.6","0.00","0.00"
"22:24:58","45.6","34.7","65.4","29.88","109","0.6","3.6","0.00","0.00"
"22:29:59","45.2","34.4","65.8","29.88","109","0.6","2.4","0.00","0.00"
"22:34:56","44.9","34.5","66.6","29.86","109","0.4","2.4","0.00","0.00"
"22:39:57","44.9","34.6","67","29.86","109","0.1","2.3","0.00","0.00"
"22:44:59","44.8","34.6","67","29.86","109","0","0","0.00","0.00"
"22:49:56","44.7","34.5","67","29.85","109","0","0","0.00","0.00"
"22:54:56","44.4","34.4","67.8","29.85","109","0","0","0.00","0.00"
"22:59:56","43.9","34","68.2","29.85","109","0.1","1.2","0.00","0.00"
"23:04:57","43.1","34","70.1","29.82","109","0.5","3.6","0.00","0.00"
"23:09:56","42.4","34","72","29.82","110","0.4","2.4","0.00","0.00"
"23:14:57","42.3","34.2","72.9","29.82","113","0.2","3.6","0.00","0.00"
"23:19:58","42.6","34.3","72.2","29.82","130","1.2","4.8","0.00","0.00"
"23:24:59","43.2","34.5","71.3","29.82","132","0.4","2.4","0.00","0.00"
"23:29:56","43.4","34.6","71","29.82","135","0.8","4.8","0.00","0.00"
"23:34:56","43.1","34.3","71.2","29.80","143","0.5","4.6","0.00","0.00"
"23:39:58","42.9","34.5","72","29.80","143","0.2","2.4","0.00","0.00"
"23:44:56","42.8","34.4","72","29.80","144","0.3","3.6","0.00","0.00"
"23:49:56","42.7","34.3","72","29.79","144","0","1.2","0.00","0.00"
